KMS 4                   
1 41332U 16009A   19265.38199798  .00001043  00000-0  34489-4 0  9996
2 41332  97.3558 333.4223 0021808 315.7986  44.1513 15.33458744202488
UNHA 3 R/B              
1 41333U 16009B   19266.21077101  .00001224  00000-0  34074-4 0  9994
2 41333  97.3792 346.0692 0039417 272.7384  86.9350 15.38155339203256